Regional Weather Roundup
Issued by NWS Green Bay, WI

Home | Current Version | Previous Version | Text Only | Print | Product List | Glossary On
Versions: 1 2 3 4 5 6 7 8 9 10 11 12 13 14 15 16 17 18 19 20 21 22 23 24 25 26 27 28 29 30 31 32 33 34 35 36 37 38 39 40 41 42 43 44 45 46 47 48 49 50
000
ASUS43 KGRB 252210
RWRGRB

NORTH-CENTRAL AND NORTHEAST WISCONSIN REGIONAL WEATHER ROUNDUP
NATIONAL WEATHER SERVICE GREEN BAY WI
400 PM CST SUN JAN 25 2015

WIZ005-009-010>012-018-019-252300-
NORTH CENTRAL WISCONSIN

CITY           SKY/WX    TMP DP  RH WIND       PRES   REMARKS
IRONWOOD       CLOUDY    18   7  62 CALM      29.99F
MANITOWISH WTR CLOUDY    18   4  55 CALM      29.98F
ARBOR VITAE    CLOUDY    20   7  55 CALM      29.98F
EAGLE RIVER    CLOUDY    18   4  53 CALM      29.98F
LAND O LAKES   CLOUDY    19   6  55 CALM      29.99S
RHINELANDER    CLOUDY    19   5  54 E5        29.99S
PHILLIPS       CLOUDY    19   7  57 CALM      29.99S
ANTIGO         CLOUDY    18   6  60 CALM      29.99S
TOMAHAWK       CLOUDY    20   5  52 CALM      30.01S
MERRILL        PTCLDY    22   5  47 CALM      30.01R
$$

WIZ013-073-252300-
NORTHEAST WISCONSIN

CITY           SKY/WX    TMP DP  RH WIND       PRES   REMARKS
IRON MOUNTAIN  CLEAR     20   6  55 NW3       30.02S
MARINETTE      CLEAR     18   7  62 E10       30.06R WCI   6
OCONTO         CLEAR     19   7  61 E9        30.07R WCI   7
$$

WIZ017-030-035>037-045-252300-
CENTRAL WISCONSIN

CITY           SKY/WX    TMP DP  RH WIND       PRES   REMARKS
MEDFORD        CLOUDY    19   8  62 S3        30.00R
WAUSAU         CLOUDY    20   6  55 NE5       30.00R
MOSINEE        MOCLDY    19   9  63 N5        30.01
MARSHFIELD     CLOUDY    21   9  59 NE7       30.00S
WISC RAPIDS    PTCLDY    20   5  52 E5        30.04R
STEVENS POINT  PTCLDY    19   5  54 E3        30.02R
WAUPACA        CLEAR     23   9  53 N6        30.04S
SHAWANO        CLEAR     23   9  54 E6        30.06R
CLINTONVILLE   CLEAR     21   7  53 NE6       30.04R
$$

WIZ038-039-048-051-252300-
FOX VALLEY

CITY           SKY/WX    TMP DP  RH WIND       PRES   REMARKS
NWS GREEN BAY  CLEAR     20  10  65 NE16      30.05R WCI   6
APPLETON       PTCLDY    21   7  53 NE14      30.03R WCI   8
OSHKOSH        PTCLDY    21  11  65 N15       30.03R WCI   8
FOND DU LAC    CLEAR     21  12  68 N17       30.02R WCI   7
$$

WIZ022-050-052-252300-
EAST CENTRAL WISCONSIN

CITY           SKY/WX    TMP DP  RH WIND       PRES   REMARKS
STURGEON BAY   MOCLDY    18   9  68 N10       30.07R WCI   6
MANITOWOC      CLOUDY    22  14  71 NE12G20   30.04R
SHEBOYGAN      CLEAR     22  11  62 N20G28    30.00R WCI   7
$$

LMZ563-521-522-541>543-252300-
LAKESHORE

STATION/POSITION TIME  TEMP    WIND        PRES    VSBY  WAVE
                       AIR SEA DIR/SP/G                  HT/PER
                 (UTC) (F)     (DEG/KT/KT) (MB)    (MI)  (FT/S)
SHEBOYGAN LKSHOR 2200   24      20/ 23/ 26 1017.2R
KEWAUNEE LKSHORE 2200   21      40/ 18/ 22 1016.6R
NORTHPORT PIER   2200   19     360/  7/  9 1018.3S
SISTER BAY LKSHO 2200   27      40/  1/  6   N/A
STURGEON BAY CG  2200   19      10/  6     1018.5      6   0
CHAMBERS ISLAND  2200   17      40/  6/ 10 1018.3S
MENOMINEE LKSHOR 2200   18      50/  7/ 10 1018.8R
$$



USA.gov is the U.S. government's official web portal to all federal, state and local government web resources and services.